EW7604 Weather Reports


time (UTC)temp
C
wind
direction
speed
KPH
gust
KPH
rain 1hr
cm
rain 24hr
cm
rain mn
cm
humidity
%
barometer
mb
20260503181510 22 29 3.2 9.7 0.00 0.00 0.00 63 1010.8
20260503180009 21 286 4.8 12.9 0.00 0.00 0.00 65 1010.8
20260503174504 20 5 8.0 17.7 0.00 0.00 0.00 66 1011.0
20260503173002 20 298 4.8 14.5 0.00 0.00 0.00 67 1010.9
20260503171501 20 61 8.0 14.5 0.00 0.00 0.00 64 1011.0
20260503170117 20 61 3.2 9.7 0.00 0.00 0.00 69 1010.8
20260503160104 18 85 0.0 4.8 0.00 0.00 0.00 73 1011.2
20260503081504 14 13 0.0 4.8 0.00 0.00 0.00 86 1011.8
20260503071612 15 13 0.0 3.2 0.00 0.00 0.00 84 1012.2
20260503054608 13 32 0.0 3.2 0.00 0.00 0.00 87 1012.1
20260503053051 13 35 0.0 1.6 0.00 0.00 0.00 86 1012.3
20260503051550 14 35 0.0 3.2 0.00 0.00 0.00 85 1012.2
20260503050049 15 35 0.0 1.6 0.00 0.00 0.00 84 1012.2
20260503044552 15 35 0.0 1.6 0.00 0.00 0.00 83 1012.2
20260503043055 15 35 1.6 3.2 0.00 0.00 0.00 82 1012.1
20260503041548 15 57 1.6 4.8 0.00 0.00 0.00 80 1012.1
20260503040054 16 57 0.0 1.6 0.00 0.00 0.00 79 1012.1
20260503034549 16 56 0.0 3.2 0.00 0.00 0.00 76 1011.6
20260503033047 17 57 1.6 4.8 0.00 0.00 0.00 75 1011.4
20260503031546 17 55 1.6 4.8 0.00 0.00 0.00 74 1011.2
20260503030045 17 317 0.0 4.8 0.00 0.00 0.00 75 1011.1
20260503024546 16 314 3.2 6.4 0.00 0.00 0.00 76 1010.9
20260503023047 17 314 0.0 4.8 0.00 0.00 0.00 77 1011.1
20260503021542 17 321 1.6 6.4 0.00 0.00 0.00 75 1011.5
20260503020040 17 76 0.0 3.2 0.00 0.00 0.00 74 1012.1
20260503014539 17 88 4.8 14.5 0.00 0.00 0.00 73 1012.7
20260503013043 18 101 3.2 12.9 0.00 0.00 0.00 71 1012.5
20260503011539 18 133 1.6 4.8 0.00 0.00 0.00 70 1012.0
20260503010038 18 136 1.6 4.8 0.00 0.00 0.00 71 1011.9
20260503004540 18 113 0.0 4.8 0.00 0.00 0.00 70 1011.7
20260503003045 18 87 0.0 4.8 0.00 0.00 0.00 72 1011.9
20260503001544 18 88 1.6 6.4 0.00 0.00 0.00 72 1011.6
20260503000041 18 80 3.2 8.0 0.00 0.00 0.00 70 1011.5
20260502234547 18 119 1.6 6.4 0.00 0.00 0.00 72 1011.6
20260502233039 18 9 1.6 8.0 0.00 0.00 0.00 71 1011.8
20260502231529 17 23 1.6 9.7 0.00 0.00 0.00 72 1012.1
20260502230032 17 9 0.0 9.7 0.00 0.00 0.00 72 1012.2
20260502224524 16 94 1.6 9.7 0.00 0.00 0.00 73 1012.5
20260502223033 16 105 1.6 6.4 0.00 0.00 0.00 73 1012.8
20260502221520 16 113 1.6 6.4 0.00 0.00 0.00 74 1013.0
20260502220023 16 34 1.6 9.7 0.00 0.00 0.00 74 1013.0
20260502214517 17 101 3.2 12.9 0.00 0.00 0.00 75 1013.1
20260502213014 16 9 4.8 12.9 0.00 0.00 0.00 73 1013.3
20260502211513 16 103 3.2 9.7 0.00 0.00 0.00 74 1013.4
20260502210009 16 5 4.8 16.1 0.00 0.00 0.00 74 1013.6
20260502204507 16 11 6.4 12.9 0.00 0.00 0.00 75 1013.7
20260502203003 15 22 6.4 16.1 0.00 0.00 0.00 76 1014.0
20260502201501 15 5 3.2 14.5 0.00 0.00 0.00 79 1014.1
20260502200100 14 55 1.6 9.7 0.00 0.00 0.00 78 1014.3
20260502194602 14 347 3.2 8.0 0.00 0.00 0.00 77 1014.7
20260502193056 14 30 4.8 9.7 0.00 0.00 0.00 75 1014.8
20260502191558 13 324 4.8 12.9 0.00 0.00 0.00 78 1014.8
20260502190053 13 62 4.8 14.5 0.00 0.00 0.00 77 1015.1
20260502184554 13 9 4.8 16.1 0.00 0.00 0.00 78 1015.2
20260502183149 12 360 3.2 8.0 0.00 0.00 0.00 78 1015.3